Location: Ida Center
(41.8662°N, 83.5713°W)
Time: 15:03:35
(UTC+00:00)

Envisat - Pass Details

Date: 17 November 2019
Orbit: 764 x 766 km, 98.1° (Epoch: 11 December)

Event Time Altitude Azimuth Distance (km) Brightness Sun altitude
Rises 23:29:11 0° 164° (SSE) 3,218 6.2 -14.4°
Reaches altitude 10° 23:31:29 10° 164° (SSE) 2,296 5.4 -14.8°
Maximum altitude 23:36:33 86° 76° (ENE) 773 2.9 -15.7°
Drops below altitude 10° 23:41:39 10° 348° (NNW) 2,312 5.5 -16.7°
Sets 23:43:58 0° 348° (NNW) 3,242 6.3 -17.1°
